Content
SEND FEEDBACK

United Kingdom Flag

INVERNESS, SCOTLAND


Home > Europe > United Kingdom > Scotland
Elevation: 30 feet     Latitude: 57 32N     Longitude: 004 03W

WEATHER
 
SELECT A DAY
Number of Records: 255,814;   Date Range: 7/1/96 - 3/22/16
 
SHARE

PRINT THIS DATA

[ ← Previous Day ]
WEATHER ALMANAC - JANUARY 4, 2013
[ Next Day → ]
[ °C ]   °F
Weather ElementAverageHighLow
Temperature50.1 °F51.8 °F (12:50 am)48.2 °F (6:20 pm)
Dewpoint45.6 °F46.4 °F (12:50 am)44.6 °F (8:20 am)
Humidity84.3 %87 % (1:20 am)76 % (2:50 pm)
Barometer30.32 in30.36 in (11:20 am)30.24 in (12:50 am)
Wind Speed17.3 mph26.5 mph (7:20 am)
Weather ElementAverage
Visibility6.2 mi
Wind DirectionSW (227.4 °)

Weather ElementTotal
Precipitation---
Heating Degree Days15 (Base 65)
Averaged from 47 records on January 4, 2013
WEATHER CONDITIONS BREAKOUT
WIND DIRECTION BREAKOUT
WEATHER BY HOUR - JANUARY 4, 2013
[ °C ]   °F
Local TimeTemperatureDewpointHumidityBarometerVisibilityWind DirectionWind SpeedGust SpeedPrecipitationEventsConditions
12:50 AM51.8 °F46.4 °F82 %30.24 in6.2 miSW (230°)20.7 mph
1:20 AM50.0 °F46.4 °F87 %30.24 in6.2 miSW (220°)19.6 mph
1:50 AM50.0 °F46.4 °F87 %30.24 in6.2 miSW (230°)19.6 mphPartly Cloudy
2:20 AM51.8 °F46.4 °F82 %30.24 in6.2 miSW (230°)19.6 mph
2:50 AM51.8 °F46.4 °F82 %30.24 inSW (230°)20.7 mphClear
3:20 AM51.8 °F46.4 °F82 %30.24 inSW (230°)21.9 mphClear
3:50 AM50.0 °F46.4 °F87 %30.27 inSW (230°)18.4 mphClear
4:20 AM50.0 °F46.4 °F87 %30.27 inSW (220°)17.3 mphClear
4:50 AM50.0 °F46.4 °F87 %30.27 inSW (220°)16.1 mphClear
5:20 AM50.0 °F46.4 °F87 %30.27 in6.2 miWSW (240°)23.0 mphPartly Cloudy
5:50 AM50.0 °F46.4 °F87 %30.30 in6.2 miSW (230°)20.7 mphPartly Cloudy
6:20 AM50.0 °F46.4 °F87 %30.30 in6.2 miSW (220°)19.6 mphPartly Cloudy
6:50 AM50.0 °F46.4 °F87 %30.30 in6.2 miSW (230°)24.2 mphPartly Cloudy
7:20 AM50.0 °F46.4 °F87 %30.30 in6.2 miWSW (240°)26.5 mphPartly Cloudy
7:50 AM50.0 °F46.4 °F87 %30.33 in6.2 miSW (230°)25.3 mphPartly Cloudy
8:20 AM50.0 °F44.6 °F82 %30.33 in6.2 miSW (230°)20.7 mphPartly Cloudy
8:50 AM50.0 °F44.6 °F82 %30.33 in6.2 miSW (230°)20.7 mphPartly Cloudy
9:20 AM50.0 °F44.6 °F82 %30.33 in6.2 miSW (230°)20.7 mphPartly Cloudy
9:50 AM50.0 °F46.4 °F87 %30.33 in6.2 miSW (230°)20.7 mphPartly Cloudy
10:20 AM50.0 °F46.4 °F87 %30.33 in6.2 miSW (230°)21.9 mphPartly Cloudy
10:50 AM50.0 °F46.4 °F87 %30.33 in6.2 miSW (230°)20.7 mphPartly Cloudy
11:20 AM50.0 °F46.4 °F87 %30.36 in6.2 miWSW (240°)17.3 mphScattered Clouds
11:50 AM50.0 °F46.4 °F87 %30.36 in6.2 miSW (230°)13.8 mphScattered Clouds
12:20 PM51.8 °F46.4 °F82 %30.36 in6.2 miSW (220°)15.0 mphScattered Clouds
12:50 PM51.8 °F46.4 °F82 %30.36 in6.2 miSW (230°)18.4 mphScattered Clouds
1:20 PM51.8 °F46.4 °F82 %30.36 in6.2 miSW (220°)17.3 mphScattered Clouds
1:50 PM51.8 °F46.4 °F82 %30.36 in6.2 miSW (220°)16.1 mphScattered Clouds
2:20 PM51.8 °F46.4 °F82 %30.33 in6.2 miSW (230°)16.1 mphScattered Clouds
2:50 PM51.8 °F44.6 °F76 %30.33 in6.2 miSW (220°)19.6 mphScattered Clouds
3:20 PM50.0 °F44.6 °F82 %30.33 in6.2 miSW (220°)21.9 mphPartly Cloudy
3:50 PM50.0 °F44.6 °F82 %30.33 in6.2 miSW (230°)21.9 mphPartly Cloudy
4:20 PM50.0 °F44.6 °F82 %30.33 in6.2 miSW (230°)17.3 mphScattered Clouds
4:50 PM50.0 °F44.6 °F82 %30.36 in6.2 miSW (230°)15.0 mphScattered Clouds
5:20 PM50.0 °F44.6 °F82 %30.36 in6.2 miSW (220°)13.8 mphScattered Clouds
5:50 PM50.0 °F44.6 °F82 %30.36 in6.2 miSW (230°)15.0 mphScattered Clouds
6:20 PM48.2 °F44.6 °F87 %30.36 in6.2 miWSW (240°)13.8 mphPartly Cloudy
6:50 PM48.2 °F44.6 °F87 %30.36 in6.2 miSW (230°)11.5 mphScattered Clouds
7:20 PM48.2 °F44.6 °F87 %30.36 in6.2 miSW (220°)9.2 mphScattered Clouds
7:50 PM48.2 °F44.6 °F87 %30.36 in6.2 miSW (230°)5.8 mphScattered Clouds
8:20 PM50.0 °F44.6 °F82 %30.36 in6.2 miSW (220°)9.2 mphMostly Cloudy
8:50 PM50.0 °F44.6 °F82 %30.36 in6.2 miSW (220°)12.7 mphMostly Cloudy
9:20 PM50.0 °F44.6 °F82 %30.36 in6.2 miSW (220°)11.5 mphMostly Cloudy
9:50 PM50.0 °F44.6 °F82 %30.36 in6.2 miWSW (240°)12.7 mphMostly Cloudy
10:20 PM50.0 °F44.6 °F82 %30.36 in6.2 miSW (220°)12.7 mphOvercast
10:50 PM48.2 °F44.6 °F87 %30.36 in6.2 miSW (230°)12.7 mphMostly Cloudy
11:20 PM48.2 °F44.6 °F87 %30.36 in6.2 miSW (220°)12.7 mphPartly Cloudy
11:50 PM48.2 °F44.6 °F87 %30.33 in6.2 miSW (220°)9.2 mph
Hourly data recorded from EGPE, located miles away from Inverness, Scotland




STORIES FROM OUR PARTNERS